Regional Weather Roundup
Issued by NWS Upton, NY

Current Version | Previous Version | Text Only | Print | Product List | Glossary On
Versions: 1 2 3 4 5 6 7 8 9 10 11 12 13 14 15 16 17 18 19 20 21 22 23 24 25 26 27 28 29 30 31 32 33 34 35 36 37 38 39 40 41 42 43 44 45 46 47 48 49 50
000
ASUS41 KOKX 241205
RWROKX

REGIONAL WEATHER ROUNDUP
NATIONAL WEATHER SERVICE NEW YORK NY
700 AM EST MON NOV 24 2014

NOTE: "FAIR" INDICATES FEW OR NO CLOUDS BELOW 12,000 FEET WITH NO
SIGNIFICANT WEATHER AND/OR OBSTRUCTIONS TO VISIBILITY.

NYZ071-072-176-178-NJZ106-104-241300-
NEW YORK CITY METRO AREA


CITY           SKY/WX    TMP DP  RH WIND       PRES   REMARKS
CENTRAL PARK   CLOUDY    60  58  92 S8        29.74R
LAGUARDIA APRT LGT RAIN  60  58  92 S23G39    29.71R FOG
KENNEDY INTL   LGT RAIN  60  58  92 S24G33    29.75R FOG
NEWARK/LIBERTY LGT RAIN  61  57  88 S13G21    29.70S
BRNX BOT. GARD   N/A     59  57  94 S17       29.72R
TETERBORO      LGT RAIN  61  58  90 S16G24    29.69R FOG
$$

NYZ177-179-078>081-241300-
LONG ISLAND NEW YORK

CITY           SKY/WX    TMP DP  RH WIND       PRES   REMARKS
FARMINGDALE    LGT RAIN  62  59  90 S30G45    29.73F FOG
ISLIP          LGT RAIN  60  58  92 S23G36    29.73F FOG
SHIRLEY        LGT RAIN  60  59  96 S25G39    29.76F FOG
WESTHAMPTON    LGT RAIN  60  58  92 S18G31    29.78F FOG
MONTAUK POINT    N/A     58  57  97 SE16G29   29.80F
$$

NYZ052-065-067-241300-
HUDSON VALLEY

CITY           SKY/WX    TMP DP  RH WIND       PRES   REMARKS
WHITE PLAINS   LGT RAIN  61  60  97 S18G36    29.70F FOG
NEWBURGH       CLOUDY    61  59  94 S17G36    29.65F FOG
MONTGOMERY     LGT RAIN  62  58  86 S18G26    29.61F
POUGHKEEPSIE   CLOUDY    64  59  83 S13G24    29.64F
ALBANY         DRZL/FOG  47  45  93 SW6       29.61F VSB 1
$$

NJZ001-105-106-008-010-013-015-019>022-104-241300-
NEW JERSEY

CITY           SKY/WX    TMP DP  RH WIND       PRES   REMARKS
NEWARK/LIBERTY LGT RAIN  61  57  88 S13G21    29.70S
TETERBORO      LGT RAIN  61  58  90 S16G24    29.69R FOG
CALDWELL       CLOUDY    63  59  87 S14G25    29.68F
MORRISTOWN     LGT RAIN  64  61  88 SW17G23   29.68S
SOMERVILLE     CLOUDY    64  61  90 S8G20     29.66S
SUSSEX         CLOUDY    63  59  87 S15G22    29.62F
ANDOVER          N/A     63  59  87 S10G26    29.63F
TRENTON        CLOUDY    64  61  90 S16G29    29.68S
MILLVILLE      LGT RAIN  62  61  96 S8        29.73R
ATLANTIC CITY  CLOUDY    61  60  97 S15G25    29.74S FOG
WRIGHTSTOWN    LGT RAIN  63  63 100 S17G24    29.68F
TOMS RIVER     CLOUDY    63  61  94 SW10G25   29.73F
BELMAR         CLOUDY    61  55  82 S12       29.72S
$$

PAZ047>061-062-071-241300-
EASTERN PENNSYLVANIA

CITY           SKY/WX    TMP DP  RH WIND       PRES   REMARKS
PHILADELPHIA   MOCLDY    63  60  90 S14       29.69S
ALLENTOWN      CLOUDY    64  59  83 S15G21    29.64S
SCRANTON       CLOUDY    62  56  80 SW10G18   29.57R
$$

CTZ002-004>006-009-010-012-RIZ004-006-007-MAZ004-011-015-241300-
SOUTHERN NEW ENGLAND
 IN CT

CITY           SKY/WX    TMP DP  RH WIND       PRES   REMARKS
BRADLEY INTL   RAIN      47  44  90 CALM      29.72F FOG
HARTFORD       RAIN      60  58  92 S17G33    29.73F FOG
DANBURY        RAIN      62  57  83 S17G29    29.71F
WTRBRY/OXFORD  NOT AVBL
BRIDGEPORT     LGT RAIN  61  59  93 S26G43    29.72F FOG
MERIDEN        LGT RAIN  60  58  92 S15G30    29.73F FOG
NEW HAVEN      LGT RAIN  62  57  83 S23G33    29.74F
CHESTER        LGT RAIN  59  59 100 S17G30    29.78F
GROTON         LGT RAIN  57  57 100 SE25G38   29.80F FOG
WILLIMANTIC    RAIN      61  57  87 S16G24    29.78F FOG

 IN RI

CITY           SKY/WX    TMP DP  RH WIND       PRES   REMARKS
PROVIDENCE     HVY RAIN  56  55  97 SE21      29.87F FOG
BLOCK ISLAND   CLOUDY   N/A N/A N/A S24G33    29.85F
WESTERLY       RAIN      58  57  97 SE20G30   29.81F FOG

 IN MA

CITY           SKY/WX    TMP DP  RH WIND       PRES   REMARKS
BOSTON         LGT RAIN  54  52  93 S17       29.88F FOG
WORCESTER      LGT RAIN  49  49 100 SE14G21   29.79F VSB 1/4
WESTFIELD      RAIN      41  39  93 CALM      29.73F FOG
PROVINCETOWN   CLOUDY    55  52  88 S15G24    29.94F
NANTUCKET      CLOUDY    56  51  84 SE23G32   29.94F
$$

ANZ330-335-338-340-345-350-353-355-241300-
COASTAL MARINE OBSERVATIONS


STATION/POSITION TIME  SKY/WX   TEMP    WIND        PRES    VSBY  WAVE
                                AIR SEA DIR/SP/G                  HT/PER
                 (UTC)          (F)     (DEG/KT/KT) (MB)    (MI)  (FT/S)
NY HARB ENTRANCE 1200            60 56  180/ 25/ 31 1006.2          9/ 7
4S FIRE IS       1200               53                N/A           7/ 5
20S FIRE ISLAND  1200            60 56  160/ 23/ 29 1006.4          7/ 6
23SW MTP         1200                                 N/A           5/ 5
HUDSON CANYON    1200            62 60  170/ 29/ 35 1008.4          8/ 7
EXECUTION ROCKS  NOT AVBL
WESTERN LI SOUND NOT AVBL
CENTRAL LI SOUND NOT AVBL
EASTERN LI SOUND NOT AVBL
ROBBINS REEF     1200            59     180/ 24/ 29 1004.7
$$


>>>>>>>>>>>>>>>>>>>>>>>>>>>> KEY <<<<<<<<<<<<<<<<<<<<<<<<<<<
>                                                          <
>     SKY/WX - SKY CONDITION/PRESENT WEATHER               <
>     TMP    - TEMPERATURE IN FAHRENHEIT                   <
>     DP     - DEWPOINT IN FAHRENHEIT                      <
>     RH     - RELATIVE HUMIDITY IN PERCENT                <
>     WIND   - DIRECTION AND SPEED IN MPH                  <
>     PRES   - MEAN SEA LEVEL PRESSURE IN INCHES OF HG     <
>     WCI    - WIND CHILL INDEX                            <
>     VSB    - VISIBILITY IN MILES                         <
>     HX     - HEAT INDEX                                  <
>     TC     - TEMPERATURE IN CELSIUS                      <
>     VRB    - VARIABLE WIND DIRECTION                     <
>                                                          <
>>>>>>>>>>>>>>>>>>>>>>>>>>>> KEY <<<<<<<<<<<<<<<<<<<<<<<<<<<




USA.gov is the U.S. government's official web portal to all federal, state and local government web resources and services.